Terminal Aerodrome Forecast
Issued by NWS

Home | Current Version | Previous Version | Text Only | Print | Product List | Glossary On
Versions: 1 2 3 4 5 6 7 8 9 10 11 12 13 14 15 16 17 18 19 20 21 22 23 24 25 26 27 28 29 30 31 32 33 34
000
FTUS46 KLOX 200856 AAC
TAFLAX
TAF AMD
KLAX 200856Z 2009/2112 26005KT P6SM BKN015 OVC025
     FM201100 VRB03KT 5SM -DZ BR BKN009 OVC019
     FM201500 13005KT P6SM OVC024
     FM201900 25010KT P6SM SCT025
     FM210100 24007KT P6SM OVC015=

USA.gov is the U.S. government's official web portal to all federal, state and local government web resources and services.